• In Belarus
  • List of Countries
  • For 7 days
  • Water Temperature
  • Satellite Maps
  • Weather Map
  • Weather Widgets
  • user-avatar
    Login

    Hourly Weather Uige

    Today, 22 August, Tuesday

    Time Temperature Precipitation Wind Pressure Humidity
    00:00 +21°C° 0 mm 2 mps 691 mmHg 74%
    01:00 +21°C° 0 mm 1 mps 691 mmHg 81%
    02:00 +20°C° 0 mm 1 mps 691 mmHg 84%
    03:00 +20°C° 0 mm 1 mps 691 mmHg 86%
    04:00 +20°C° 0 mm 1 mps 691 mmHg 88%
    05:00 +20°C° 0 mm 1 mps 691 mmHg 87%
    06:00 +20°C° 0 mm 1 mps 691 mmHg 85%
    07:00 +21°C° 0 mm 1 mps 692 mmHg 82%
    08:00 +24°C° 0 mm 1 mps 693 mmHg 68%
    09:00 +28°C° 0 mm 1 mps 693 mmHg 53%
    10:00 +31°C° 0 mm 1 mps 694 mmHg 39%
    11:00 +34°C° 0 mm 1 mps 693 mmHg 32%
    12:00 +37°C° 0 mm 1 mps 693 mmHg 24%
    13:00 +40°C° 0 mm 1 mps 693 mmHg 17%
    14:00 +40°C° 0 mm 1 mps 692 mmHg 17%
    15:00 +39°C° 0 mm 1 mps 691 mmHg 16%
    16:00 +37°C° 0 mm 1 mps 690 mmHg 16%
    17:00 +35°C° 0 mm 1 mps 690 mmHg 20%
    18:00 +32°C° 0 mm 1 mps 689 mmHg 25%
    19:00 +29°C° 0 mm 1 mps 689 mmHg 29%
    20:00 +28°C° 0 mm 1 mps 690 mmHg 36%
    21:00 +27°C° 0 mm 1 mps 690 mmHg 43%
    22:00 +26°C° 0 mm 1 mps 691 mmHg 50%
    23:00 +25°C° 0 mm 1 mps 691 mmHg 56%

    Tomorrow, 23 August, Wednesday

    Time Temperature Precipitation Wind Pressure Humidity
    00:00 +24°C° 0 mm 2 mps 691 mmHg 62%
    01:00 +23°C° 0 mm 2 mps 691 mmHg 69%
    02:00 +22°C° 0 mm 1 mps 690 mmHg 73%
    03:00 +21°C° 0 mm 1 mps 690 mmHg 78%
    04:00 +20°C° 0 mm 1 mps 690 mmHg 82%
    05:00 +20°C° 0 mm 1 mps 690 mmHg 81%
    06:00 +20°C° 0 mm 1 mps 691 mmHg 81%
    07:00 +20°C° 0 mm 1 mps 691 mmHg 80%
    08:00 +24°C° 0 mm 1 mps 692 mmHg 68%
    09:00 +27°C° 0 mm 1 mps 693 mmHg 55%
    10:00 +30°C° 0 mm 1 mps 693 mmHg 42%
    11:00 +32°C° 0 mm 1 mps 693 mmHg 37%
    12:00 +35°C° 0 mm 1 mps 692 mmHg 31%
    13:00 +37°C° 0 mm 1 mps 692 mmHg 25%
    14:00 +36°C° 0 mm 1 mps 691 mmHg 27%
    15:00 +36°C° 0 mm 2 mps 690 mmHg 28%
    16:00 +35°C° 0 mm 2 mps 690 mmHg 29%
    17:00 +32°C° 0 mm 2 mps 690 mmHg 33%
    18:00 +31°C° 0 mm 2 mps 690 mmHg 37%
    19:00 +29°C° 0 mm 3 mps 690 mmHg 41%
    20:00 +27°C° 0 mm 2 mps 691 mmHg 48%
    21:00 +26°C° 0 mm 2 mps 691 mmHg 55%
    22:00 +24°C° 0 mm 2 mps 692 mmHg 62%
    23:00 +23°C° 0 mm 2 mps 692 mmHg 67%

    Day after tomorrow, 24 August, Thursday

    Time Temperature Precipitation Wind Pressure Humidity
    00:00 +21°C° 0 mm 2 mps 691 mmHg 71%
    01:00 +21°C° 0 mm 2 mps 691 mmHg 76%
    02:00 +20°C° 0 mm 2 mps 691 mmHg 79%
    03:00 +19°C° 0 mm 2 mps 691 mmHg 82%
    04:00 +19°C° 0 mm 2 mps 690 mmHg 85%
    05:00 +19°C° 0 mm 2 mps 691 mmHg 84%
    06:00 +19°C° 0 mm 2 mps 691 mmHg 84%
    07:00 +19°C° 0 mm 2 mps 691 mmHg 83%
    08:00 +23°C° 0 mm 2 mps 692 mmHg 72%
    09:00 +25°C° 0 mm 2 mps 693 mmHg 61%
    10:00 +28°C° 0 mm 2 mps 693 mmHg 50%
    11:00 +29°C° 0 mm 2 mps 693 mmHg 44%
    12:00 +31°C° 0 mm 3 mps 692 mmHg 39%
    13:00 +34°C° 0 mm 3 mps 692 mmHg 33%
    14:00 +34°C° 0 mm 3 mps 691 mmHg 33%
    15:00 +34°C° 0 mm 3 mps 691 mmHg 33%
    16:00 +34°C° 0 mm 3 mps 690 mmHg 33%
    17:00 +31°C° 0 mm 3 mps 690 mmHg 37%
    18:00 +29°C° 0 mm 3 mps 691 mmHg 42%
    19:00 +28°C° 0 mm 2 mps 691 mmHg 46%
    20:00 +26°C° 0 mm 2 mps 691 mmHg 52%
    21:00 +25°C° 0 mm 2 mps 692 mmHg 58%
    22:00 +24°C° 0 mm 2 mps 692 mmHg 64%
    23:00 +23°C° 0 mm 2 mps 692 mmHg 69%

    25 August, Friday

    Time Temperature Precipitation Wind Pressure Humidity
    00:00 +21°C° 0 mm 2 mps 691 mmHg 73%
    01:00 +20°C° 0 mm 2 mps 691 mmHg 78%
    02:00 +20°C° 0 mm 2 mps 691 mmHg 80%
    03:00 +19°C° 0 mm 2 mps 691 mmHg 83%
    04:00 +19°C° 0 mm 2 mps 690 mmHg 85%
    05:00 +19°C° 0 mm 2 mps 691 mmHg 84%
    06:00 +19°C° 0 mm 2 mps 691 mmHg 83%
    07:00 +19°C° 0 mm 2 mps 692 mmHg 81%
    08:00 +21°C° 0 mm 2 mps 692 mmHg 69%
    09:00 +25°C° 0 mm 2 mps 693 mmHg 57%
    10:00 +27°C° 0 mm 2 mps 693 mmHg 45%
    11:00 +29°C° 0 mm 2 mps 693 mmHg 39%
    12:00 +31°C° 0 mm 3 mps 692 mmHg 33%
    13:00 +35°C° 0 mm 3 mps 691 mmHg 27%
    14:00 +35°C° 0 mm 3 mps 691 mmHg 26%
    15:00 +35°C° 0 mm 3 mps 690 mmHg 26%
    16:00 +35°C° 0 mm 3 mps 689 mmHg 25%
    17:00 +33°C° 0 mm 3 mps 690 mmHg 30%
    18:00 +30°C° 0 mm 3 mps 690 mmHg 35%
    19:00 +28°C° 0 mm 3 mps 690 mmHg 39%
    20:00 +26°C° 0 mm 2 mps 690 mmHg 45%
    21:00 +25°C° 0 mm 2 mps 690 mmHg 50%
    22:00 +23°C° 0 mm 2 mps 691 mmHg 55%
    23:00 +21°C° 0 mm 2 mps 691 mmHg 59%

    26 August, Saturday

    Time Temperature Precipitation Wind Pressure Humidity
    00:00 +21°C° 0 mm 2 mps 690 mmHg 63%
    01:00 +20°C° 0 mm 2 mps 690 mmHg 67%
    02:00 +19°C° 0 mm 2 mps 690 mmHg 71%
    03:00 +18°C° 0 mm 2 mps 690 mmHg 75%
    04:00 +18°C° 0 mm 2 mps 690 mmHg 79%
    05:00 +18°C° 0 mm 2 mps 690 mmHg 80%
    06:00 +17°C° 0 mm 2 mps 691 mmHg 80%
    07:00 +17°C° 0 mm 2 mps 691 mmHg 81%
    08:00 +20°C° 0 mm 2 mps 692 mmHg 68%
    09:00 +24°C° 0 mm 2 mps 692 mmHg 54%
    10:00 +27°C° 0 mm 2 mps 693 mmHg 41%
    11:00 +29°C° 0 mm 3 mps 692 mmHg 36%
    12:00 +31°C° 0 mm 3 mps 692 mmHg 30%
    13:00 +34°C° 0 mm 3 mps 691 mmHg 24%
    14:00 +34°C° 0 mm 3 mps 691 mmHg 24%
    15:00 +34°C° 0 mm 3 mps 690 mmHg 24%
    16:00 +34°C° 0 mm 3 mps 690 mmHg 23%
    17:00 +31°C° 0 mm 3 mps 690 mmHg 27%
    18:00 +29°C° 0 mm 3 mps 690 mmHg 31%
    19:00 +26°C° 0 mm 3 mps 691 mmHg 35%
    20:00 +25°C° 0 mm 3 mps 691 mmHg 42%
    21:00 +24°C° 0 mm 2 mps 691 mmHg 49%
    22:00 +21°C° 0 mm 2 mps 692 mmHg 56%
    23:00 +20°C° 0 mm 2 mps 691 mmHg 63%

    27 August, Sunday

    Time Temperature Precipitation Wind Pressure Humidity
    00:00 +19°C° 0 mm 2 mps 691 mmHg 69%
    01:00 +18°C° 0 mm 2 mps 690 mmHg 76%
    02:00 +18°C° 0 mm 2 mps 690 mmHg 78%
    03:00 +17°C° 0 mm 2 mps 690 mmHg 80%
    04:00 +17°C° 0 mm 2 mps 690 mmHg 83%
    05:00 +17°C° 0 mm 2 mps 691 mmHg 81%
    06:00 +17°C° 0 mm 2 mps 691 mmHg 80%
    07:00 +17°C° 0 mm 2 mps 692 mmHg 78%
    08:00 +20°C° 0 mm 2 mps 692 mmHg 65%
    09:00 +24°C° 0 mm 2 mps 693 mmHg 52%
    10:00 +27°C° 0 mm 2 mps 693 mmHg 39%
    11:00 +29°C° 0 mm 2 mps 692 mmHg 34%
    12:00 +31°C° 0 mm 2 mps 692 mmHg 29%
    13:00 +35°C° 0 mm 2 mps 691 mmHg 24%
    14:00 +35°C° 0 mm 2 mps 691 mmHg 23%
    15:00 +35°C° 0 mm 2 mps 690 mmHg 23%
    16:00 +35°C° 0 mm 2 mps 690 mmHg 23%
    17:00 +32°C° 0 mm 2 mps 690 mmHg 26%
    18:00 +29°C° 0 mm 2 mps 690 mmHg 30%
    19:00 +27°C° 0 mm 2 mps 691 mmHg 34%
    20:00 +26°C° 0 mm 2 mps 691 mmHg 40%
    21:00 +25°C° 0 mm 2 mps 691 mmHg 46%
    22:00 +23°C° 0 mm 2 mps 692 mmHg 52%
    23:00 +21°C° 0 mm 2 mps 691 mmHg 58%
    Show more